Location: Bruderhein
(53.8035°N, 112.9265°W)
Time: 01:48:48
(UTC+00:00)

STRAND 1 - Pass Details

Date: 11 April 2023
Orbit: 767 x 779 km, 98.4° (Epoch: 31 May)

Event Time Altitude Azimuth Distance (km) Brightness Sun altitude
Rises 10:47:50 0° 93° (E) 3,247 ? -15.6°
Reaches altitude 10° 10:52:05 10° 58° (ENE) 2,322 ? -15.1°
Maximum altitude 10:53:22 11° 44° (NE) 2,258 ? -14.9°
Drops below altitude 10° 10:54:39 10° 29° (NNE) 2,323 ? -14.8°
Sets 10:58:53 0° 355° (N) 3,254 ? -14.3°
